Regional Weather Roundup
Issued by NWS Wakefield, VA

Home | Current Version | Previous Version | Text Only | Print | Product List | Glossary On
Versions: 1 2 3 4 5 6 7 8 9 10 11 12 13 14 15 16 17 18 19 20 21 22 23 24 25 26 27 28 29 30 31 32 33 34 35 36 37 38 39 40 41 42 43 44 45 46 47 48 49 50
000
ASUS41 KAKQ 050415
RWRAKQ

REGIONAL WEATHER ROUNDUP
NATIONAL WEATHER SERVICE WAKEFIELD VA
1200 AM EDT WED AUG 05 2015

Note: "fair" indicates few or no clouds below 12,000 feet with no
significant weather and/or obstructions to visibility. * = Denotes
station may not report precipitation (e.g., rain,snow,etc.),
thunder or fog.

VAZ042-051-052>054-056-050500-
NORTHERN VIRGINIA

CITY           SKY/WX    TMP DP  RH WIND       PRES   REMARKS
WASH NATIONAL  MOCLDY    78  71  79 NW8       29.93R
DULLES         PTCLDY    73  70  90 NW6       29.94R
FORT BELVOIR   MOCLDY    73  69  88 W2        29.92R
QUANTICO       MOCLDY    75  65  70 NW7       29.93R
FREDERICKSBRG* PTCLDY    77  68  75 CALM      29.92R
STAFFORD*      PTCLDY    71  65  82 CALM      29.97R
WARRENTON      MOCLDY    68  68 100 CALM      29.93S FOG
CULPEPER*      CLEAR     69  67  93 N6        29.95S
MANASSAS*      PTCLDY    70  70 100 CALM      29.94R
LEESBURG*      PTCLDY    72  72 100 W9        29.95S
WINCHESTER     PTCLDY    72  66  83 CALM      29.97R
FRONT ROYAL*   FAIR      68  68 100 CALM      29.96R
LURAY*         FAIR      68  66  94 CALM      29.98S
$$

VAZ048-049-060>072-079>083-050500-
CENTRAL AND SOUTH CENTRAL VIRGINIA

CITY           SKY/WX    TMP DP  RH WIND       PRES   REMARKS
RICHMOND       PTCLDY    80  74  81 S9        29.93R
CHESTERFIELD*  MOCLDY    79  64  61 S5        29.95R
PETERSBURG*    PTCLDY    80  78  93 SW3       29.95R
HANOVER        CLEAR     76  70  82 W3        29.94R
TAPPAHANNOCK*  CLEAR     77  73  87 CALM      29.93R
QUINTON*       FAIR      80  74  80 SW3       29.93R
CHARLOTTSVILLE CLEAR     76  66  71 CALM      29.96S
GORDONSVILLE*  FAIR      70  68  94 CALM      29.95R
ORANGE*        CLEAR     70  68  94 CALM      29.96S
LOUISA*        CLEAR     72  68  88 CALM      29.94S
BUMPASS*       FAIR      74  69  84 N6        29.94R
FARMVILLE*     PTCLDY    76  69  78 CALM      29.95R
CREWE*         FAIR     N/A N/A N/A CALM      29.95R
FORT PICKETT*  FAIR      75  73  93 CALM      29.96R
CHASE CITY*    FAIR      76  76 100 CALM      29.97S
CLARKSVILLE*   FAIR      75  72  88 CALM      29.96S
SOUTH HILL*    PTCLDY    75  73  91 SW6       30.03R
LAWRENCEVILLE* FAIR      77  73  88 CALM      29.97R
EMPORIA*       CLEAR     77  72  83 SE3       29.97R
$$

VAZ088>098-050500-
SOUTHEAST VIRGINIA

CITY           SKY/WX    TMP DP  RH WIND       PRES   REMARKS
NORFOLK        CLEAR     80  72  76 S14       29.95R
VIRGINIA BEACH PTCLDY    81  73  76 S10       29.95R
NORFOLK NAVAL  PTCLDY    79  72  79 S13G18    29.96R
WEST POINT*    PTCLDY    84  72  68 SW7       29.93S
SALUDA*        FAIR      80  74  80 S8        29.90F
NEWPORT NEWS   CLEAR     81  73  76 S14       29.94R
LANGLEY AFB    CLEAR     80  73  80 S14       29.93S
FORT EUSTIS    CLEAR     80  75  85 S9        29.92R
WILLIAMSBURG*  CLEAR     82  75  78 S7        29.95R
HR EXEC AP*    FAIR      79  72  78 S9G16     29.97S
FRANKLIN*      CLEAR     77  73  85 S8        29.96R
WAKEFIELD      CLEAR     80  72  76 VRB7      29.95R
$$

VAZ020-022-025-037-045-050500-
WEST CENTRAL AND SOUTHWEST VIRGINIA

CITY           SKY/WX    TMP DP  RH WIND       PRES   REMARKS
STAUNTON*      PTCLDY    75  62  64 CALM      30.03R
WAYNESBORO*    FAIR      75  61  62 W5        30.02S
HOT SPRINGS VA CLOUDY    69  64  84 W12       30.13F
LYNCHBURG      MOCLDY    71  69  93 S6        30.00R
DANVILLE       PTCLDY    75  69  81 SW6       29.99R
SOUTH BOSTON*  FAIR      73  71  95 CALM      29.97S
MARTINSVILLE   MOCLDY    72  72 100 CALM      30.03S
ROANOKE        CLOUDY    78  63  59 W12       30.03S
BLACKSBURG     CLOUDY    70  64  82 SW3       30.11F
DUBLIN*          N/A     73  66  78 W3        30.10F
MARION*        CLOUDY    69  67  93 W8        30.15F
HILLSVILLE*    CLOUDY    71  64  79 NW12      30.11F
RICHLANDS*     FAIR      70  64  83 CALM      30.15S
WISE*          CLOUDY    68  66  94 W6        30.17R
ABINGDON*      MOCLDY    69  66  88 CALM      30.13R
$$

MDZ021>025-VAZ099-100-050500-
SOUTHERN MARYLAND AND THE DELMARVA PENINSULA

CITY           SKY/WX    TMP DP  RH WIND       PRES   REMARKS
PATUXENT RIVER MOCLDY    78  72  81 S3        29.89S
BAY BRIDGE APT   N/A     73  70  88 E3        29.92S
LEONARDTOWN    MOCLDY    75  68  78 CALM      29.92F
DOVER          MOCLDY    74  72  93 E3        29.88F
GEORGETOWN     MOCLDY    73  69  87 SW12      29.92R THUNDER
EASTON         CLOUDY    73  73 100 N3        29.94S
CAMBRIDGE      CLOUDY    77  72  83 N7        29.90R
SALISBURY      MOCLDY    76  68  76 N12       29.91S
OCEAN CITY     MOCLDY    76  66  71 MISG      29.91R
WALLOPS ISLAND PTCLDY    76  74  93 S15       29.91S
ACCOMACK*      PTCLDY   N/A N/A N/A S10       29.92S
$$

NCZ012>017-030>032-050500-
NORTH CENTRAL AND EASTERN NORTH CAROLINA

CITY           SKY/WX    TMP DP  RH WIND       PRES   REMARKS
ROANOKE RAPIDS FAIR      75  72  88 S5        29.97R
RALEIGH        MOCLDY    80  72  76 S3        29.99R
ELIZABETH CITY MOCLDY    78  75  90 S7        29.97R
AHOSKIE*       PTCLDY   N/A N/A N/A S3        29.98R
EDENTON*         N/A     78  75  89 S6        29.97S
CURRITUCK*     MOCLDY    79  73  81 S3        29.97S
KILL DEVIL HLS MOCLDY    79  73  83 S8        29.95F
MANTEO         MOCLDY    78  75  90 S15       29.97F
CAPE HATTERAS  CLOUDY    79  76  90 SW7       29.97F
TARBORO*         N/A     77  73  86 CALM      29.98R
GOLDSBORO      CLEAR     76  74  95 CALM      29.97R
WASHINGTON     PTCLDY    74  73  94 CALM      29.98R
GREENVILLE     CLEAR     77  73  88 CALM      30.00R
NEW BERN       CLOUDY    79  75  87 SW3       29.98R
WILMINGTON     MOCLDY    78  76  93 SW3       29.98R
$$

VAZ048-050500-
ELSEWHERE

CITY           SKY/WX    TMP DP  RH WIND       PRES   REMARKS
HARRISBURG PA  MOCLDY    70  60  70 CALM      29.93R
BALTIMORE      MOCLDY    71  70  96 CALM      29.92R
ANNAPOLIS      MOCLDY    78  71  79 N5        29.91S
ANDREWS AFB    MOCLDY    73  71  91 CALM      29.92R
PHILADELPHIA   PTCLDY    81  52  36 CALM      29.91R
HENDERSON NC   CLEAR     76  69  80 S3        29.98S
GREENSBORO     MOCLDY    80  67  64 CALM      30.01S
ROCKY MOUNT    CLEAR     76  72  87 S3        29.98R
$$

VAZ100-050500-
MARINE

STATION/POSITION TIME  TEMP    WIND        PRES    WAVE   SWELL
                       AIR SEA DIR/SP/G            HT/PER HT/PER
                 (UTC) (F)     (DEG/KT/KT) (MB)    (FT/S) (FT/S)
BRANDYWINE LGT   0300   75 78   30/ 14/ 15 1013.4R
CAPE MAY NJ      0300   76 78   30/  6/ 10 1013.5R
LEWES DE         0300   77 75  290/ 13/ 16 1013.0R
15NM E FENWICK I 0350   79 79  210/ 14/ 16 1012.3S   5/ 6   3/ 6
OCEAN-CITY-INLET 0300   77 72  240/  9/ 10 1011.7F
WACHAPREAGUE VA  0300   77 84  190/  5/  5 1013.3F
GOOSES REEF MD   0400   81 83  340/  8/ 10 1013.5F
COVE POINT MD    0300   81     240/  7/ 13 1013.0R
SOLOMONS ISLAND  0300      84                N/A
BISHOPS HEAD MD  0300   81 84  180/ 18/ 21 1010.8F
PINEY POINT MD   0300          210/ 14/ 15   N/A
POTOMAC MD       0400   83 83  210/ 14/ 17 1011.0F   2/ 3
CAMBRIDGE MD     0300   75 85  120/  4/  4 1011.5F
LEWISETTA VA     0300   81 85  210/ 10/ 12 1011.9S
RAPPAHANNOCK LGT 0300          160/ 10/ 14 1013.8R
STINGRAY PT      0400   83 83  210/ 16/ 19 1012.9F   2/ 3
YORK RVR RNG VA  0300   83     210/ 16/ 19 1012.6R
YORKTOWN VA      0300   83 84  200/ 10/ 14 1012.9R
JAMESTOWN VA     0400   81 85  200/ 14/ 17   N/A
DOMINION TERM VA 0300   81     190/ 12/ 15 1013.4R
KIPTOPEKE VA     0300      83  200/ 15/ 17   N/A
CHES BAY BRIDGE  0300   81 80  180/ 17/ 20 1013.1R
CAPE HENRY VA    0300   80     190/ 11/ 15   N/A
CHESAPEAKE LGHT  0300   78     180/ 19/ 20 1014.3R
WILLOUBY STN VA  0300   81     210/ 18/ 20 1014.4R
CAPE HENRY BUOY  0328      77                N/A     4/ 5   2/11
1ST LANDING BUOY 0400      81              1013.6R   2/ 3
CAPE CHARLES BUO 0326      72                N/A     3/ 5   2/11
OFFSHORE WE BUOY 0311      81                N/A     5/ 5   2/11
64NM E OF VA BCH 0350   81 81  190/ 21/ 25 1014.2F   5/ 6   2/11
DUCK PIER NC     0300   78 62  170/ 12/ 19 1013.9R
44100 DUCK FRF   0324      78                N/A     3/ 5
44056 DUCK FRF   0311      64                N/A     3/ 6
OREGON INLET NC  0300   79 82  180/ 19/ 25 1015.5R
HATTERAS NC      0300   78 80  190/  4/  9 1014.8S
DIAMOND SHLS NC  0350   83 83  220/ 21/ 27 1014.5F   5/ 5   2/11
CAPE LOOKOUT NC  0400   80     210/ 13/ 16 1014.3F
$$


USA.gov is the U.S. government's official web portal to all federal, state and local government web resources and services.